This is the latest recevied weather packets stored in our database for station/object SA6BET-2. If no packets are shown the sender has not sent any weather packets the latest 10 day(s).
| Time | Temp. | Humidity | Pressure | Rain* | Wind** | Luminosity | Snow |
|---|---|---|---|---|---|---|---|
| 1777535358 | 19.44° C | 100% | 1019.1 hPa | - | - | - | - |
| 1777534458 | 18.89° C | 100% | 1019 hPa | - | - | - | - |
| 1777533558 | 19.44° C | 100% | 1018.7 hPa | - | - | - | - |
| 1777532658 | 18.33° C | 100% | 1018.7 hPa | - | - | - | - |
| 1777531758 | 17.78° C | 100% | 1018.7 hPa | - | - | - | - |
| 1777530858 | 17.78° C | 100% | 1018.5 hPa | - | - | - | - |
| 1777529957 | 17.22° C | 100% | 1018.5 hPa | - | - | - | - |
| 1777529057 | 16.67° C | 100% | 1018.3 hPa | - | - | - | - |
| 1777528157 | 16.11° C | 100% | 1018.1 hPa | - | - | - | - |
| 1777527257 | 16.11° C | 100% | 1017.9 hPa | - | - | - | - |
| 1777526357 | 15.56° C | 100% | 1017.8 hPa | - | - | - | - |
| 1777525456 | 15.56° C | 100% | 1017.5 hPa | - | - | - | - |
| 1777524556 | 15.56° C | 100% | 1017.4 hPa | - | - | - | - |
| 1777523656 | 15.56° C | 100% | 1017.3 hPa | - | - | - | - |
| 1777522756 | 16.11° C | 100% | 1017.3 hPa | - | - | - | - |
| 1777521856 | 16.11° C | 100% | 1017.2 hPa | - | - | - | - |
| 1777520956 | 16.11° C | 100% | 1017.3 hPa | - | - | - | - |
| 1777520055 | 16.11° C | 100% | 1017.3 hPa | - | - | - | - |
| 1777519155 | 16.11° C | 100% | 1017.3 hPa | - | - | - | - |
| 1777518255 | 16.11° C | 100% | 1017.2 hPa | - | - | - | - |
| 1777517355 | 16.11° C | 100% | 1017.3 hPa | - | - | - | - |
| 1777516455 | 16.67° C | 100% | 1017.4 hPa | - | - | - | - |
| 1777515555 | 16.67° C | 100% | 1017.3 hPa | - | - | - | - |
| 1777514654 | 16.67° C | 100% | 1017.1 hPa | - | - | - | - |
| 1777513754 | 16.67° C | 100% | 1017.1 hPa | - | - | - | - |
* Rain since midnight (hover to see other rain measurements)
** Current wind speed in m/s (hover to see current wind gust speed)